Regional Weather Roundup
Issued by NWS Jackson, KY

Home | Current Version | Previous Version | Graphics & Text | Print | Product List | Glossary On
Versions: 1 2 3 4 5 6 7 8 9 10 11 12 13 14 15 16 17 18 19 20 21 22 23 24 25 26 27
000
ASUS43 KJKL 262310
RWRJKL

EAST KENTUCKY HOURLY WEATHER ROUNDUP
NATIONAL WEATHER SERVICE JACKSON KY
700 PM EDT FRI AUG 26 2016

NOTE: "FAIR" INDICATES FEW OR NO CLOUDS BELOW 12,000 FEET WITH
NO SIGNIFICANT WEATHER AND/OR OBSTRUCTIONS TO VISIBILITY.

* THESE REPORTS ARE NOT UNDER NWS QUALITY CONTROL AND MAY NOT
  REPORT WEATHER SUCH AS PRECIPITATION AND FOG.

KYZ079-080-083-085-087-088-110-112-115-119-120-270000
...EASTERN KENTUCKY...

CITY           SKY/WX    TMP DP  RH WIND       PRES   REMARKS
JACKSON        SUNNY     87  70  56 CALM      30.12F HX  92
LONDON         SUNNY     88  67  49 NE6       30.10F HX  91
SOMERSET*      SUNNY     88  68  51 E5        30.09S HX  91
MONTICELLO*    SUNNY    N/A N/A N/A VRB5      30.09S
WILLIAMSBURG*  CLEAR     86  73  66 NE3       30.09S HX  93
MIDDLESBORO*   PTSUNNY   88  73  60 N3        30.09S HX  95
HARLAN APT*    CLEAR     86  68  54 CALM      30.12S
PIKE CO APT*     N/A     85  70  59 NE3       30.13S HX  90
BIG SANDY APT* PTCLDY    88  71  57 CALM      30.12S HX  93
MOREHEAD APT*  CLEAR     88  70  55 CALM      30.11F HX  92
ASHLAND*       CLOUDY    90  75  62 CALM      30.06R THUNDER HX 100
$$

KYZ035-036-041-042-044-050-067-078-099-270000
...CENTRAL KENTUCKY...

CITY           SKY/WX    TMP DP  RH WIND       PRES   REMARKS
MT STERLING*   SUNNY     90  70  51 SE6       30.11F HX  95
FLEMING/MASON* SUNNY     89  72  57 S3        30.10S HX  95
DANVILLE*      SUNNY     88  68  51 CALM      30.10S HX  91
LEXINGTON      PTSUNNY   88  70  55 S5        30.09S HX  93
FRANKFORT      MOSUNNY   92  67  43 CALM      30.06F HX  95
LOUISVILLE     MOSUNNY   91  68  46 SE7       30.05R HX  95
LEBANON*         N/A     90  68  48 E5        30.08S HX  93
GLASGOW*       SUNNY     87  72  62 E5        30.05R HX  93
BOWLING GREEN  SUNNY     90  73  57 E3        30.05R HX  98
$$

KYZ091>093-OHZ055-061-077-WVZ005-015-034-035-042-270000
...SOUTHERN OHIO/WEST VIRGINIA...

CITY           SKY/WX    TMP DP  RH WIND       PRES   REMARKS
COVINGTON      CLOUDY    90  72  55 CALM      30.07F HX  97
COLUMBUS       MOSUNNY   84  67  56 NE9       30.09S
DAYTON         MOSUNNY   86  71  60 NE8       30.10F HX  91
WILMINGTON     MOSUNNY   85  74  69 CALM      30.09F HX  92
HUNTINGTON     PTSUNNY   88  72  58 S5        30.08S HX  94
CHARLESTON     MOSUNNY   89  71  55 CALM      30.09S HX  95
PINEVILLE*     SUNNY     79  71  74 MISG      30.19S
BECKLEY        SUNNY     84  67  56 N3        30.19S
BLUEFIELD      SUNNY     82  65  56 N3        30.22S
LOGAN CO APT*    N/A     86  72  62 CALM      30.13R HX  92
$$

VAZ002-007-008-TNZ017-027-036-066-071-270000
...SOUTHWEST VIRGINIA/EAST TENNESSEE...

CITY           SKY/WX    TMP DP  RH WIND       PRES   REMARKS
WISE*          SUNNY     82  55  39 N6        30.22S
JONESVILLE*      N/A     90  72  55 CALM      30.12F HX  96
ABINGDON*      MOSUNNY   87  67  50 NE6       30.15F HX  90
BRISTOL        MOSUNNY   90  69  50 N5        30.10F HX  94
MORRISTOWN*    CLEAR     90  66  45 E9        30.07S HX  92
SEVIERVILLE*     N/A     90  68  48 E7        30.04S HX  93
KNOXVILLE      MOSUNNY   92  65  40 NE13      30.03S HX  94
OAK RIDGE      SUNNY     92  69  47 CALM      30.06S HX  97
CROSSVILLE     CLOUDY    84  71  65 E3        30.12R
NASHVILLE      CLOUDY    91  72  53 E7        30.04R HX  98
$$

...KEY TO REMARKS...
VSB - VISIBILITY IN MILES
WCI - WIND CHILL INDEX
HX  - HEAT INDEX

$$




USA.gov is the U.S. government's official web portal to all federal, state and local government web resources and services.